W7TJC Weather Reports


time (UTC)temp
F
wind
direction
speed
knots
gust
knots
rain 1hr
in
rain 24hr
in
rain mn
in
humidity
%
barometer
mb
20260505130234 53 116 0.0 0.0 0.00 0.00 0.00 88 1015.3
20260505124724 53 112 0.0 0.0 0.00 0.00 0.00 88 1015.3
20260505124221 53 181 0.9 0.9 0.00 0.00 0.00 88 1015.4
20260505123717 53 145 0.0 0.0 0.00 0.00 0.00 88 1015.4
20260505123214 53 119 0.0 0.0 0.00 0.00 0.00 88 1015.5
20260505122711 53 117 0.0 0.0 0.00 0.00 0.00 88 1015.2
20260505122208 53 173 0.0 0.0 0.00 0.00 0.00 87 1015.2
20260505121704 53 122 0.0 0.0 0.00 0.00 0.00 88 1015.1
20260505121201 53 144 0.0 0.0 0.00 0.00 0.00 88 1015.1
20260505120657 53 127 0.0 0.0 0.00 0.00 0.00 88 1015.2
20260505120153 53 106 0.0 0.0 0.00 0.00 0.00 88 1015.3
20260505115647 53 205 0.9 1.7 0.00 0.00 0.00 88 1015.1
20260505115145 53 186 0.0 0.9 0.00 0.00 0.00 88 1015.2
20260505114642 53 172 0.0 0.0 0.00 0.00 0.00 88 1015.0
20260505114138 53 128 0.0 0.0 0.00 0.00 0.00 88 1014.9
20260505113635 53 131 0.0 0.0 0.00 0.00 0.00 88 1015.2
20260505113131 53 125 0.9 0.9 0.00 0.00 0.00 88 1015.0
20260505112627 53 198 1.7 1.7 0.00 0.00 0.00 88 1015.1
20260505112126 53 93 0.0 0.9 0.00 0.00 0.00 88 1014.9
20260505111625 53 129 0.0 0.0 0.00 0.00 0.00 88 1014.9
20260505111121 53 135 0.0 0.0 0.00 0.00 0.00 88 1014.8
20260505110618 53 142 0.0 0.9 0.00 0.00 0.00 88 1014.9
20260505110115 53 79 0.9 1.7 0.00 0.00 0.00 88 1014.9
20260505102051 54 211 0.9 1.7 0.00 0.00 0.00 88 1014.6
20260505101549 54 237 0.9 0.9 0.00 0.00 0.00 88 1014.5
20260505101045 54 148 0.0 0.0 0.00 0.00 0.00 88 1014.5
20260505100542 54 194 0.0 0.0 0.00 0.00 0.00 88 1014.5
20260505100039 54 153 0.0 0.0 0.00 0.00 0.00 88 1014.5
20260505095535 54 112 0.0 0.0 0.00 0.00 0.00 88 1014.6
20260505095031 54 119 0.0 0.0 0.00 0.00 0.00 88 1014.4
20260505094528 54 111 0.0 0.0 0.00 0.00 0.00 88 1014.6
20260505094024 54 157 0.0 0.0 0.00 0.00 0.00 88 1014.6
20260505093521 54 155 0.0 0.0 0.00 0.00 0.00 88 1014.3
20260505093018 54 123 0.0 0.0 0.00 0.00 0.00 88 1014.3
20260505092516 54 123 0.0 0.0 0.00 0.00 0.00 88 1014.1
20260505092014 54 204 1.7 1.7 0.00 0.00 0.00 88 1014.3
20260505091511 54 152 0.0 0.0 0.00 0.00 0.00 88 1014.3
20260505091009 54 134 0.0 0.0 0.00 0.00 0.00 88 1014.2
20260505090506 54 186 0.0 0.0 0.00 0.00 0.00 88 1014.2
20260505090004 54 144 0.0 0.0 0.00 0.00 0.00 88 1014.2
20260505085501 54 188 0.0 0.0 0.00 0.00 0.00 88 1014.2
20260505084959 54 109 0.0 0.0 0.00 0.00 0.00 89 1014.4
20260505084457 54 136 0.0 0.0 0.00 0.00 0.00 89 1014.1
20260505083955 54 145 0.0 0.0 0.00 0.00 0.00 89 1013.9
20260505083452 54 118 0.9 0.9 0.00 0.00 0.00 89 1014.2
20260505082948 54 118 0.0 0.0 0.00 0.00 0.00 89 1014.0
20260505082444 54 209 1.7 2.6 0.00 0.00 0.00 89 1013.8
20260505081942 54 163 0.9 0.9 0.00 0.00 0.00 89 1014.0
20260505081438 54 97 0.0 0.0 0.00 0.00 0.00 89 1014.2
20260505080934 54 139 0.9 0.9 0.00 0.00 0.00 89 1014.0
20260505080431 54 122 0.9 0.9 0.00 0.00 0.00 89 1013.9
20260505075926 54 207 1.7 1.7 0.00 0.00 0.00 89 1013.9
20260505075423 54 165 0.9 1.7 0.00 0.00 0.00 88 1014.1
20260505074921 54 179 0.0 0.0 0.00 0.00 0.00 89 1014.1
20260505074418 54 98 0.0 0.0 0.00 0.00 0.00 89 1013.9
20260505073915 54 30 0.0 0.0 0.00 0.00 0.00 89 1013.8
20260505073413 54 128 0.0 0.9 0.00 0.00 0.00 89 1013.8
20260505072910 54 124 0.0 0.0 0.00 0.00 0.00 89 1013.8
20260505072406 53 142 0.0 0.0 0.00 0.00 0.00 89 1013.8
20260505071902 53 121 0.0 0.0 0.00 0.00 0.00 89 1013.7
20260505071358 53 127 0.0 0.0 0.00 0.00 0.00 89 1013.6
20260505070857 53 114 0.0 0.0 0.00 0.00 0.00 89 1013.5
20260505070353 53 125 0.0 0.0 0.00 0.00 0.00 89 1013.4
20260505065848 53 137 0.0 0.0 0.00 0.00 0.00 89 1013.4
20260505065345 53 140 0.0 0.0 0.00 0.00 0.00 88 1013.7
20260505064842 54 134 0.0 0.0 0.00 0.00 0.00 88 1013.3
20260505064339 54 141 0.0 0.0 0.00 0.00 0.00 88 1013.3
20260505063837 54 125 0.0 0.0 0.00 0.00 0.00 88 1013.1
20260505063333 54 140 0.0 0.0 0.00 0.00 0.00 88 1013.1
20260505062830 54 119 0.0 0.0 0.00 0.00 0.00 87 1013.2
20260505062327 54 118 0.0 0.0 0.00 0.00 0.00 88 1013.1
20260505061824 54 171 0.0 0.0 0.00 0.00 0.00 87 1013.2
20260505061322 54 191 0.9 0.9 0.00 0.00 0.00 87 1012.8
20260505060819 54 165 0.0 0.0 0.00 0.00 0.00 87 1012.7
20260505060316 54 126 0.0 0.0 0.00 0.00 0.00 87 1013.0
20260505055812 54 102 0.0 0.0 0.00 0.00 0.00 87 1012.8
20260505055308 55 125 0.0 0.0 0.00 0.00 0.00 86 1013.0
20260505054806 55 126 0.0 0.0 0.00 0.00 0.00 86 1012.7
20260505054303 55 146 0.0 0.0 0.00 0.00 0.00 86 1012.8
20260505053801 55 98 0.0 0.0 0.00 0.00 0.00 86 1012.6
20260505053257 55 118 0.0 0.0 0.00 0.00 0.00 86 1012.7
20260505052754 55 123 0.0 0.9 0.00 0.00 0.00 85 1012.5
20260505052251 55 120 0.0 0.0 0.00 0.00 0.00 85 1012.8
20260505051748 55 196 0.0 0.9 0.00 0.00 0.00 85 1012.7
20260505051246 55 154 0.9 0.9 0.00 0.00 0.00 85 1012.6
20260505050744 56 150 0.0 0.9 0.00 0.00 0.00 84 1012.6
20260505050242 56 165 0.9 0.9 0.00 0.00 0.00 84 1012.5
20260505041712 57 192 0.0 0.9 0.00 0.00 0.00 81 1012.1
20260505041209 58 146 0.0 0.9 0.00 0.00 0.00 81 1012.1
20260505040706 58 146 0.9 0.9 0.00 0.00 0.00 80 1012.1
20260505040204 58 148 0.0 0.0 0.00 0.00 0.00 80 1011.9
20260505035700 59 201 1.7 1.7 0.00 0.00 0.00 80 1011.8
20260505035156 59 197 1.7 1.7 0.00 0.00 0.00 79 1011.7
20260505034653 59 148 1.7 1.7 0.00 0.00 0.00 79 1011.7
20260505034150 60 191 0.9 0.9 0.00 0.00 0.00 78 1011.8
20260505033646 60 204 1.7 1.7 0.00 0.00 0.00 77 1011.8
20260505033145 61 150 1.7 1.7 0.00 0.00 0.00 76 1011.7
20260505032643 62 144 0.0 0.0 0.00 0.00 0.00 75 1011.7
20260505032138 62 142 0.0 0.0 0.00 0.00 0.00 75 1011.6
20260505031636 62 145 0.9 0.9 0.00 0.00 0.00 74 1011.4
20260505031132 62 209 1.7 1.7 0.00 0.00 0.00 74 1011.5
20260505030629 63 152 0.0 0.0 0.00 0.00 0.00 73 1011.4
20260505030125 64 192 0.9 0.9 0.00 0.00 0.00 72 1011.3
20260505025621 64 195 0.9 0.9 0.00 0.00 0.00 72 1011.2
20260505025120 65 189 0.9 0.9 0.00 0.00 0.00 71 1011.3
20260505024617 65 202 1.7 1.7 0.00 0.00 0.00 71 1011.3
20260505024114 66 171 0.9 0.9 0.00 0.00 0.00 70 1011.2
20260505023611 66 208 0.9 0.9 0.00 0.00 0.00 69 1011.3
20260505023109 67 196 0.9 0.9 0.00 0.00 0.00 67 1011.3
20260505022606 67 202 1.7 1.7 0.00 0.00 0.00 66 1010.9
20260505022103 67 194 0.9 1.7 0.00 0.00 0.00 66 1011.1
20260505021559 68 198 0.9 0.9 0.00 0.00 0.00 65 1011.2
20260505021056 69 178 0.9 0.9 0.00 0.00 0.00 65 1011.1
20260505020556 69 120 0.9 0.9 0.00 0.00 0.00 64 1011.3
20260505020053 70 212 0.9 0.9 0.00 0.00 0.00 63 1011.2
20260505015550 70 202 0.9 1.7 0.00 0.00 0.00 62 1011.2
20260505015047 71 195 0.9 0.9 0.00 0.00 0.00 61 1011.1
20260505014544 71 188 0.0 0.9 0.00 0.00 0.00 60 1011.2
20260505014041 71 135 0.9 1.7 0.00 0.00 0.00 60 1011.0
20260505013538 72 176 0.0 0.0 0.00 0.00 0.00 59 1010.8
20260505013036 72 118 0.9 0.9 0.00 0.00 0.00 59 1011.1
20260505012533 72 145 0.0 0.9 0.00 0.00 0.00 59 1011.0
20260505012030 73 198 1.7 1.7 0.00 0.00 0.00 57 1011.1
20260505011525 73 110 0.0 0.0 0.00 0.00 0.00 56 1011.0
20260505011023 73 160 0.9 0.9 0.00 0.00 0.00 56 1010.9
20260505010518 73 114 0.0 0.0 0.00 0.00 0.00 54 1011.1
20260505010015 73 97 0.0 0.0 0.00 0.00 0.00 54 1010.8
20260505005512 74 169 0.0 0.0 0.00 0.00 0.00 53 1011.0
20260505005009 74 109 0.0 0.0 0.00 0.00 0.00 54 1011.0
20260505004506 74 139 0.0 0.0 0.00 0.00 0.00 55 1011.0
20260505004003 74 72 0.0 0.0 0.00 0.00 0.00 52 1011.1
20260505003500 75 172 0.0 0.0 0.00 0.00 0.00 53 1011.1
20260505002956 75 133 0.0 0.0 0.00 0.00 0.00 52 1010.9
20260505002452 75 109 0.0 0.0 0.00 0.00 0.00 52 1011.0
20260505001951 75 218 1.7 1.7 0.00 0.00 0.00 50 1010.8
20260505001448 75 113 0.0 0.0 0.00 0.00 0.00 52 1010.9
20260505000945 75 220 1.7 1.7 0.00 0.00 0.00 52 1010.8
20260505000443 75 155 0.9 0.9 0.00 0.00 0.00 51 1011.0
20260504235940 75 208 0.9 0.9 0.00 0.00 0.00 53 1010.9
20260504235437 75 166 0.9 1.7 0.00 0.00 0.00 53 1010.9
20260504234933 75 150 0.0 0.9 0.00 0.00 0.00 52 1011.0
20260504234431 75 106 0.0 0.0 0.00 0.00 0.00 52 1010.8
20260504233927 76 108 0.9 0.9 0.00 0.00 0.00 52 1011.0
20260504233423 76 115 0.0 0.0 0.00 0.00 0.00 53 1011.0
20260504232920 76 130 0.0 0.0 0.00 0.00 0.00 53 1011.1
20260504232417 75 203 0.0 0.0 0.00 0.00 0.00 56 1011.0
20260504231914 75 144 0.0 0.0 0.00 0.00 0.00 53 1010.9
20260504231410 76 205 0.9 0.9 0.00 0.00 0.00 53 1010.8
20260504230907 76 181 0.9 0.9 0.00 0.00 0.00 54 1011.0
20260504230404 76 210 1.7 1.7 0.00 0.00 0.00 53 1011.2
20260504225903 75 155 0.0 0.9 0.00 0.00 0.00 52 1011.1
20260504225358 75 216 0.0 0.9 0.00 0.00 0.00 53 1011.3
20260504224856 75 149 0.9 1.7 0.00 0.00 0.00 52 1011.4
20260504224353 75 208 1.7 1.7 0.00 0.00 0.00 51 1011.5
20260504223849 75 215 1.7 1.7 0.00 0.00 0.00 53 1011.7
20260504223345 75 202 1.7 1.7 0.00 0.00 0.00 51 1011.8
20260504222842 75 109 0.9 0.9 0.00 0.00 0.00 51 1011.6
20260504222338 75 109 0.0 0.9 0.00 0.00 0.00 52 1011.6
20260504221837 75 128 0.9 0.9 0.00 0.00 0.00 54 1011.7
20260504221333 75 215 0.9 0.9 0.00 0.00 0.00 56 1011.6
20260504220831 75 218 2.6 2.6 0.00 0.00 0.00 54 1011.5
20260504220327 76 193 0.9 0.9 0.00 0.00 0.00 55 1012.0
20260504215825 77 186 0.9 0.9 0.00 0.00 0.00 51 1011.8
20260504215321 78 46 0.9 0.9 0.00 0.00 0.00 48 1011.7
20260504214817 77 102 0.0 0.0 0.00 0.00 0.00 49 1011.8
20260504214314 78 88 0.0 0.0 0.00 0.00 0.00 48 1012.1
20260504213810 75 119 0.0 0.9 0.00 0.00 0.00 52 1011.9
20260504213306 76 128 0.0 0.9 0.00 0.00 0.00 50 1011.7
20260504212804 76 62 0.0 0.0 0.00 0.00 0.00 52 1011.9
20260504212300 78 117 0.0 0.0 0.00 0.00 0.00 48 1011.9
20260504211758 77 112 0.9 0.9 0.00 0.00 0.00 49 1012.1
20260504211254 75 109 0.0 0.0 0.00 0.00 0.00 52 1012.0
20260504210751 75 108 0.0 0.0 0.00 0.00 0.00 53 1012.1
20260504210248 75 224 0.9 1.7 0.00 0.00 0.00 53 1012.1
20260504205745 76 111 0.0 0.0 0.00 0.00 0.00 50 1012.2
20260504205243 74 98 0.0 0.0 0.00 0.00 0.00 57 1012.0
20260504204741 73 204 2.6 2.6 0.00 0.00 0.00 54 1012.3
20260504204239 74 134 0.0 0.9 0.00 0.00 0.00 53 1012.3
20260504203738 75 209 1.7 1.7 0.00 0.00 0.00 53 1012.2
20260504203235 75 64 0.0 0.0 0.00 0.00 0.00 54 1012.6
20260504202735 76 102 0.9 0.9 0.00 0.00 0.00 51 1012.2
20260504202232 76 111 0.0 0.0 0.00 0.00 0.00 51 1012.2
20260504201730 75 206 1.7 1.7 0.00 0.00 0.00 53 1012.0
20260504201227 75 123 0.0 0.0 0.00 0.00 0.00 54 1012.0
20260504200725 76 103 0.0 0.0 0.00 0.00 0.00 52 1012.1
20260504200220 76 137 0.0 0.9 0.00 0.00 0.00 53 1012.1
20260504195717 76 148 0.0 0.0 0.00 0.00 0.00 54 1012.1
20260504195213 75 98 0.0 0.0 0.00 0.00 0.00 55 1012.4
20260504194710 75 105 0.0 0.0 0.00 0.00 0.00 55 1012.3
20260504194206 74 101 0.0 0.0 0.00 0.00 0.00 56 1012.2
20260504193702 74 171 0.0 0.0 0.00 0.00 0.00 55 1012.1
20260504193200 73 95 0.0 0.0 0.00 0.00 0.00 57 1012.5
20260504192658 73 107 0.0 0.0 0.00 0.00 0.00 58 1012.4
20260504192156 72 102 0.0 0.0 0.00 0.00 0.00 57 1012.5
20260504191654 72 215 0.9 0.9 0.00 0.00 0.00 58 1012.5
20260504191150 72 201 0.9 0.9 0.00 0.00 0.00 58 1012.5
20260504190646 72 121 0.0 0.0 0.00 0.00 0.00 58 1012.5
20260504190143 73 74 0.0 0.9 0.00 0.00 0.00 56 1012.4
20260504185639 72 206 0.0 0.0 0.00 0.00 0.00 58 1012.6
20260504185136 71 137 0.9 0.9 0.00 0.00 0.00 60 1012.5
20260504184632 72 107 0.0 0.0 0.00 0.00 0.00 57 1012.5
20260504184127 72 81 0.0 0.0 0.00 0.00 0.00 58 1012.7
20260504183624 72 102 0.9 0.9 0.00 0.00 0.00 60 1012.7
20260504183122 71 110 0.0 0.0 0.00 0.00 0.00 61 1012.6
20260504182620 71 136 1.7 1.7 0.00 0.00 0.00 61 1012.6
20260504182117 70 110 0.9 0.9 0.00 0.00 0.00 61 1012.6
20260504181614 71 197 0.0 0.9 0.00 0.00 0.00 61 1012.5
20260504181111 71 102 0.0 0.0 0.00 0.00 0.00 60 1012.8
20260504180611 71 105 0.0 0.0 0.00 0.00 0.00 61 1012.7
20260504180109 69 105 0.0 0.0 0.00 0.00 0.00 61 1012.6
20260504175606 69 103 0.0 0.9 0.00 0.00 0.00 63 1012.5
20260504175103 68 112 0.0 0.0 0.00 0.00 0.00 66 1012.6
20260504174601 67 198 0.9 0.9 0.00 0.00 0.00 67 1012.7
20260504174057 67 91 0.0 0.0 0.00 0.00 0.00 67 1012.6
20260504173554 66 108 0.0 0.0 0.00 0.00 0.00 68 1012.5
20260504173052 66 189 0.9 0.9 0.00 0.00 0.00 68 1012.5
20260504172547 66 114 0.0 0.0 0.00 0.00 0.00 69 1012.4
20260504172044 65 129 0.0 0.0 0.00 0.00 0.00 70 1012.3
20260504171541 65 111 0.0 0.0 0.00 0.00 0.00 71 1012.5
20260504171038 65 113 0.0 0.0 0.00 0.00 0.00 70 1012.7
20260504170534 64 97 0.0 0.0 0.00 0.00 0.00 70 1012.4
20260504150918 57 77 0.0 0.0 0.00 0.00 0.00 77 1011.9
20260504150415 57 81 0.0 0.0 0.00 0.00 0.00 77 1012.0
20260504140841 55 87 0.0 0.0 0.00 0.00 0.00 74 1011.5
20260504140337 55 90 0.0 0.0 0.00 0.00 0.00 73 1011.3